Camden, AR

1:26 AM CDT on August 17, 2017 (GMT -0500)
Harrell

Weather History for KCDH - October, 2014

Change the Weather History Date:

Tuesday, October 21, 2014

  Actual Average Record
Temperature  
Mean Temperature 68 °F -  
Max Temperature 82 °F 74 °F 92 °F (1941)
Min Temperature 53 °F 46 °F 27 °F (1952)
Cooling Degree Days 2    
Growing Degree Days 18 (Base 50)    
Moisture  
Dew Point 56 °F    
Average Humidity 76    
Maximum Humidity 94    
Minimum Humidity 39    
Precipitation  
Precipitation 0.00 in - - ()
Sea Level Pressure  
Sea Level Pressure 30.07 in    
Wind  
Wind Speed 1 mph (NNE)    
Max Wind Speed 6 mph    
Max Gust Speed -    
Visibility 6 miles    
Events Fog    
Averages and records for this station are not official NWS values.
T = Trace of Precipitation, MM = Missing Value Source: NWS Daily Summary

Daily Weather History Graph

Daily Weather History Graph

Search for Another Location

Airport or City:

Trip Planner

Search our weather history database for the weather conditions in past years. The results will help you decide how hot, cold, wet, or windy it might be!

Date:

Astronomy

Oct. 21, 2014 Rise Set
Actual Time 7:20 AM CDT 6:30 PM CDT
Civil Twilight 6:55 AM CDT 6:55 PM CDT
Nautical Twilight 6:26 AM CDT 7:24 PM CDT
Astronomical Twilight 5:57 AM CDT 7:53 PM CDT
Moon 5:11 AM CDT (10/21) 5:19 PM CDT (10/21)
Length of Visible Light 12h 00m
Length of Day
11h 09m
Waning Crescent, 5% of the Moon is Illuminated
Oct 21
Waning Crescent
Oct 23
New
Oct 30
First Quarter
Nov 6
Full
Nov 14
Last Quarter

Hourly Weather History & Observations

Time (CDT) Temp. Heat Index Dew Point Humidity Pressure Visibility Wind Dir Wind Speed Gust Speed Precip Events Conditions
12:15 AM 55.4 °F - 53.6 °F 94% 30.05 in 3.0 mi Calm Calm - N/A   Clear
12:35 AM 55.4 °F - 53.6 °F 94% 30.05 in 8.0 mi Calm Calm - N/A   Clear
12:55 AM 55.4 °F - 53.6 °F 94% 30.05 in 8.0 mi Calm Calm - N/A   Clear
1:15 AM 53.6 °F - 51.8 °F 94% 30.05 in 0.5 mi Calm Calm - N/A Fog Fog
1:35 AM 53.6 °F - 51.8 °F 94% 30.05 in 1.0 mi Calm Calm - N/A   Clear
1:55 AM 53.6 °F - 51.8 °F 94% 30.05 in 5.0 mi North 3.5 mph - N/A   Clear
2:15 AM 53.6 °F - 50.0 °F 88% 30.05 in 5.0 mi Calm Calm - N/A   Clear
2:35 AM 53.6 °F - 50.0 °F 88% 30.05 in 3.0 mi Calm Calm - N/A   Clear
2:55 AM 53.6 °F - 50.0 °F 88% 30.05 in 0.2 mi Calm Calm - N/A Fog Fog
3:15 AM 53.6 °F - 50.0 °F 88% 30.05 in 0.2 mi Calm Calm - N/A Fog Fog
3:35 AM 53.6 °F - 50.0 °F 88% 30.05 in 2.5 mi Calm Calm - N/A   Clear
3:55 AM 53.6 °F - 50.0 °F 88% 30.05 in 7.0 mi Calm Calm - N/A   Mostly Cloudy
4:15 AM 53.6 °F - 51.8 °F 94% 30.05 in 5.0 mi Calm Calm - N/A   Overcast
4:35 AM 55.4 °F - 53.6 °F 94% 30.05 in 5.0 mi Calm Calm - N/A   Overcast
4:55 AM 57.2 °F - 53.6 °F 88% 30.05 in 5.0 mi Calm Calm - N/A   Overcast
5:15 AM 57.2 °F - 55.4 °F 94% 30.06 in 5.0 mi Calm Calm - N/A   Overcast
5:35 AM 57.2 °F - 55.4 °F 94% 30.06 in 7.0 mi Calm Calm - N/A   Overcast
5:55 AM 57.2 °F - 55.4 °F 94% 30.07 in 7.0 mi Calm Calm - N/A   Overcast
6:15 AM 57.2 °F - 55.4 °F 94% 30.07 in 7.0 mi Calm Calm - N/A   Overcast
6:35 AM 57.2 °F - 55.4 °F 94% 30.07 in 8.0 mi Calm Calm - N/A   Overcast
6:55 AM 57.2 °F - 55.4 °F 94% 30.07 in 8.0 mi Calm Calm - N/A   Overcast
7:15 AM 57.2 °F - 55.4 °F 94% 30.08 in 8.0 mi Calm Calm - N/A   Overcast
7:35 AM 59.0 °F - 55.4 °F 88% 30.08 in 9.0 mi Calm Calm - N/A   Overcast
7:55 AM 59.0 °F - 55.4 °F 88% 30.09 in 5.0 mi Calm Calm - N/A   Mostly Cloudy
8:15 AM 59.0 °F - 55.4 °F 88% 30.10 in 8.0 mi Calm Calm - N/A   Mostly Cloudy
8:35 AM 59.0 °F - 55.4 °F 88% 30.11 in 7.0 mi Calm Calm - N/A   Mostly Cloudy
8:55 AM 59.0 °F - 57.2 °F 94% 30.12 in 9.0 mi Calm Calm - N/A   Mostly Cloudy
9:15 AM 62.6 °F - 57.2 °F 82% 30.12 in 10.0 mi Calm Calm - N/A   Overcast
9:35 AM 62.6 °F - 57.2 °F 82% 30.13 in 9.0 mi Calm Calm - N/A   Overcast
9:55 AM 64.4 °F - 59.0 °F 83% 30.13 in 9.0 mi Calm Calm - N/A   Mostly Cloudy
10:15 AM 68.0 °F - 59.0 °F 73% 30.12 in 10.0 mi North 3.5 mph - N/A   Clear
10:35 AM 71.6 °F - 59.0 °F 64% 30.12 in 10.0 mi North 5.8 mph - N/A   Clear
10:55 AM 73.4 °F - 59.0 °F 61% 30.12 in 10.0 mi North 3.5 mph - N/A   Clear
11:15 AM 75.2 °F - 59.0 °F 57% 30.12 in 10.0 mi NNE 3.5 mph - N/A   Clear
11:35 AM 77.0 °F - 59.0 °F 54% 30.12 in 10.0 mi NNE 3.5 mph - N/A   Clear
11:55 AM 77.0 °F - 59.0 °F 54% 30.11 in 10.0 mi North 3.5 mph - N/A   Partly Cloudy
12:15 PM 78.8 °F - 59.0 °F 51% 30.11 in 10.0 mi NNE 4.6 mph - N/A   Partly Cloudy
12:35 PM 82.4 °F 82.5 °F 59.0 °F 45% 30.10 in 10.0 mi Calm Calm - N/A   Scattered Clouds
12:55 PM 77.0 °F - 59.0 °F 54% 30.09 in 10.0 mi Calm Calm - N/A   Mostly Cloudy
1:15 PM 80.6 °F 81.1 °F 59.0 °F 48% 30.08 in 10.0 mi Calm Calm - N/A   Scattered Clouds
1:35 PM 80.6 °F 81.1 °F 59.0 °F 48% 30.07 in 10.0 mi Calm Calm - N/A   Partly Cloudy
1:55 PM 80.6 °F 80.8 °F 57.2 °F 45% 30.06 in 10.0 mi ENE 4.6 mph - N/A   Partly Cloudy
2:15 PM 80.6 °F 80.8 °F 57.2 °F 45% 30.05 in 10.0 mi Calm Calm - N/A   Partly Cloudy
2:35 PM 80.6 °F 80.8 °F 57.2 °F 45% 30.05 in 10.0 mi ENE 4.6 mph - N/A   Clear
2:55 PM 82.4 °F 82.0 °F 57.2 °F 42% 30.04 in 10.0 mi ENE 4.6 mph - N/A   Partly Cloudy
3:15 PM 82.4 °F 81.7 °F 55.4 °F 39% 30.04 in 10.0 mi Calm Calm - N/A   Scattered Clouds
3:35 PM 80.6 °F 80.8 °F 57.2 °F 45% 30.04 in 9.0 mi North 4.6 mph - N/A   Clear
3:55 PM 82.4 °F 82.0 °F 57.2 °F 42% 30.03 in 7.0 mi East 4.6 mph - N/A   Clear
4:15 PM 82.4 °F 82.0 °F 57.2 °F 42% 30.03 in 6.0 mi ENE 4.6 mph - N/A   Haze
4:35 PM 80.6 °F 80.5 °F 55.4 °F 42% 30.03 in 7.0 mi Calm Calm - N/A   Partly Cloudy
4:55 PM 80.6 °F 80.8 °F 57.2 °F 45% 30.03 in 3.0 mi ENE 5.8 mph - N/A   Haze
5:15 PM 78.8 °F - 55.4 °F 44% 30.03 in 1.5 mi North 3.5 mph - N/A   Haze
5:35 PM 78.8 °F - 55.4 °F 44% 30.02 in 1.5 mi Calm Calm - N/A   Haze
5:55 PM 77.0 °F - 59.0 °F 54% 30.02 in 1.5 mi Calm Calm - N/A   Haze
6:15 PM 73.4 °F - 59.0 °F 61% 30.03 in 1.5 mi Calm Calm - N/A   Haze
6:35 PM 68.0 °F - 59.0 °F 73% 30.03 in 1.5 mi Calm Calm - N/A   Haze
6:55 PM 66.2 °F - 60.8 °F 83% 30.03 in 2.5 mi Calm Calm - N/A   Haze
7:15 PM 64.4 °F - 59.0 °F 83% 30.04 in 3.0 mi Calm Calm - N/A   Clear
7:35 PM 62.6 °F - 59.0 °F 88% 30.04 in 3.0 mi Calm Calm - N/A   Clear
7:55 PM 62.6 °F - 59.0 °F 88% 30.05 in 3.0 mi North - - N/A   Clear
8:15 PM 60.8 °F - 57.2 °F 88% 30.05 in 2.5 mi North 3.5 mph - N/A   Clear
8:35 PM 59.0 °F - 57.2 °F 94% 30.06 in 2.0 mi Calm Calm - N/A   Clear
8:55 PM 59.0 °F - 57.2 °F 94% 30.06 in 1.8 mi Calm Calm - N/A   Clear
9:15 PM 59.0 °F - 57.2 °F 94% 30.07 in 7.0 mi Calm Calm - N/A   Clear
9:35 PM 57.2 °F - 55.4 °F 94% 30.08 in 0.5 mi Calm Calm - N/A Fog Fog
9:55 PM 57.2 °F - 55.4 °F 94% 30.08 in 1.2 mi Calm Calm - N/A   Clear
10:15 PM 57.2 °F - 55.4 °F 94% 30.09 in 0.8 mi Calm Calm - N/A   Mist
10:35 PM 57.2 °F - 55.4 °F 94% 30.09 in 0.2 mi Calm Calm - N/A Fog Fog
10:55 PM 57.2 °F - 55.4 °F 94% 30.09 in 1.5 mi Calm Calm - N/A   Clear
11:15 PM 55.4 °F - 53.6 °F 94% 30.09 in 0.8 mi Calm Calm - N/A   Mist
11:35 PM 55.4 °F - 53.6 °F 94% 30.08 in 3.0 mi Calm Calm - N/A   Clear
11:55 PM 55.4 °F - 53.6 °F 94% 30.08 in 1.5 mi Calm Calm - N/A   Clear